Terminal Aerodrome Forecast
Issued by NWS

Home | Current Version | Previous Version | Text Only | Print | Product List | Glossary On
Versions: 1 2 3 4 5 6 7 8 9 10 11 12 13 14 15 16 17 18 19 20 21 22 23 24 25 26 27 28 29 30 31 32 33 34 35 36 37 38 39 40 41 42 43 44 45 46 47
000
FTAK31 PAFA 011129
TAFASC
TAF
PASC 011129Z 0112/0212 18006KT 3SM -RA BR SCT005 OVC010
     FM011400 24010KT P6SM BKN012 OVC025
     FM011600 27015KT P6SM SCT005 BKN012 OVC025=

USA.gov is the U.S. government's official web portal to all federal, state and local government web resources and services.